• In Netherlands
  • List of Countries
  • For 7 days
  • Water Temperature
  • Satellite Maps
  • Weather Map
  • Weather Widgets
  • user-avatar
    Login

    Hourly Weather Klagenfurt

    Today, 30 March, Thursday

    Time Temperature Precipitation Wind Pressure Humidity
    00:00 +7°C° 0 mm 1 mps 694 mmHg 85%
    01:00 +6°C° 0 mm 1 mps 695 mmHg 86%
    02:00 +6°C° 0 mm 1 mps 695 mmHg 87%
    03:00 +6°C° 0 mm 1 mps 695 mmHg 87%
    04:00 +5°C° 0 mm 1 mps 695 mmHg 88%
    05:00 +6°C° 0 mm 1 mps 695 mmHg 86%
    06:00 +7°C° 0 mm 1 mps 695 mmHg 84%
    07:00 +7°C° 0 mm 1 mps 696 mmHg 82%
    08:00 +10°C° 0 mm 1 mps 696 mmHg 72%
    09:00 +13°C° 0 mm 1 mps 697 mmHg 62%
    10:00 +15°C° 0 mm 0 mps 697 mmHg 51%
    11:00 +18°C° 0 mm 1 mps 697 mmHg 49%
    12:00 +19°C° 0 mm 1 mps 697 mmHg 46%
    13:00 +19°C° 0 mm 1 mps 698 mmHg 44%
    14:00 +19°C° 0 mm 1 mps 697 mmHg 46%
    15:00 +19°C° 0 mm 1 mps 697 mmHg 48%
    16:00 +18°C° 0 mm 1 mps 697 mmHg 50%
    17:00 +14°C° 0 mm 1 mps 696 mmHg 62%
    18:00 +12°C° 0 mm 1 mps 696 mmHg 75%
    19:00 +9°C° 0 mm 1 mps 695 mmHg 87%
    20:00 +8°C° 0 mm 1 mps 695 mmHg 89%
    21:00 +8°C° 0 mm 1 mps 695 mmHg 91%
    22:00 +6°C° 0 mm 0 mps 695 mmHg 93%
    23:00 +6°C° 0 mm 0 mps 695 mmHg 94%

    Tomorrow, 31 March, Friday

    Time Temperature Precipitation Wind Pressure Humidity
    00:00 +5°C° 0 mm 0 mps 695 mmHg 95%
    01:00 +5°C° 0 mm 0 mps 695 mmHg 95%
    02:00 +5°C° 0 mm 0 mps 695 mmHg 96%
    03:00 +5°C° 0 mm 0 mps 695 mmHg 96%
    04:00 +5°C° 0 mm 0 mps 694 mmHg 96%
    05:00 +6°C° 0 mm 0 mps 694 mmHg 96%
    06:00 +7°C° 0 mm 0 mps 695 mmHg 95%
    07:00 +8°C° 0 mm 0 mps 695 mmHg 94%
    08:00 +11°C° 0 mm 1 mps 695 mmHg 85%
    09:00 +13°C° 0 mm 1 mps 695 mmHg 75%
    10:00 +15°C° 0 mm 1 mps 695 mmHg 65%
    11:00 +15°C° 0 mm 1 mps 695 mmHg 63%
    12:00 +16°C° 0 mm 1 mps 694 mmHg 60%
    13:00 +16°C° 0 mm 1 mps 694 mmHg 58%
    14:00 +16°C° 0 mm 1 mps 694 mmHg 59%
    15:00 +16°C° 0 mm 1 mps 693 mmHg 61%
    16:00 +15°C° 0 mm 1 mps 693 mmHg 62%
    17:00 +13°C° 0 mm 1 mps 692 mmHg 71%
    18:00 +11°C° 0 mm 1 mps 691 mmHg 80%
    19:00 +9°C° 0 mm 1 mps 691 mmHg 90%
    20:00 +9°C° 0 mm 1 mps 691 mmHg 91%
    21:00 +8°C° 0 mm 1 mps 691 mmHg 92%
    22:00 +7°C° 0 mm 1 mps 691 mmHg 94%
    23:00 +7°C° 0 mm 1 mps 690 mmHg 94%

    Day after tomorrow, 1 April, Saturday

    Time Temperature Precipitation Wind Pressure Humidity
    00:00 +7°C° 0 mm 1 mps 690 mmHg 94%
    01:00 +7°C° 0 mm 1 mps 690 mmHg 94%
    02:00 +6°C° 0 mm 1 mps 689 mmHg 94%
    03:00 +6°C° 0 mm 1 mps 689 mmHg 94%
    04:00 +6°C° 0 mm 1 mps 689 mmHg 94%
    05:00 +7°C° 0 mm 1 mps 689 mmHg 92%
    06:00 +7°C° 0 mm 1 mps 689 mmHg 90%
    07:00 +8°C° 0 mm 1 mps 689 mmHg 88%
    08:00 +10°C° 0 mm 1 mps 690 mmHg 78%
    09:00 +12°C° 0 mm 1 mps 690 mmHg 68%
    10:00 +14°C° 0 mm 2 mps 690 mmHg 58%
    11:00 +15°C° 0 mm 2 mps 690 mmHg 54%
    12:00 +16°C° 0 mm 3 mps 690 mmHg 51%
    13:00 +17°C° 0 mm 3 mps 690 mmHg 47%
    14:00 +17°C° 0 mm 3 mps 690 mmHg 47%
    15:00 +16°C° 0 mm 3 mps 689 mmHg 47%
    16:00 +16°C° 0 mm 3 mps 689 mmHg 48%
    17:00 +13°C° 0 mm 2 mps 689 mmHg 59%
    18:00 +10°C° 0 mm 2 mps 688 mmHg 70%
    19:00 +8°C° 0 mm 1 mps 688 mmHg 81%
    20:00 +8°C° 0 mm 1 mps 688 mmHg 83%
    21:00 +7°C° 0 mm 1 mps 689 mmHg 86%
    22:00 +6°C° 0 mm 1 mps 689 mmHg 89%
    23:00 +6°C° 0 mm 1 mps 689 mmHg 90%

    2 April, Sunday

    Time Temperature Precipitation Wind Pressure Humidity
    00:00 +5°C° 0 mm 1 mps 689 mmHg 90%
    01:00 +5°C° 0 mm 1 mps 689 mmHg 91%
    02:00 +5°C° 0 mm 1 mps 689 mmHg 91%
    03:00 +4°C° 0 mm 1 mps 689 mmHg 91%
    04:00 +4°C° 0 mm 1 mps 689 mmHg 91%
    05:00 +5°C° 0 mm 1 mps 690 mmHg 86%
    06:00 +6°C° 0 mm 1 mps 690 mmHg 81%
    07:00 +7°C° 0 mm 1 mps 691 mmHg 77%
    08:00 +10°C° 0 mm 1 mps 691 mmHg 67%
    09:00 +13°C° 0 mm 1 mps 692 mmHg 57%
    10:00 +15°C° 0 mm 1 mps 693 mmHg 47%
    11:00 +16°C° 0 mm 1 mps 693 mmHg 45%
    12:00 +18°C° 0 mm 1 mps 693 mmHg 42%
    13:00 +19°C° 0 mm 1 mps 693 mmHg 40%
    14:00 +19°C° 0 mm 1 mps 693 mmHg 41%
    15:00 +18°C° 0 mm 1 mps 693 mmHg 43%
    16:00 +18°C° 0 mm 1 mps 692 mmHg 45%
    17:00 +14°C° 0.1 mm 1 mps 692 mmHg 58%
    18:00 +11°C° 0.1 mm 1 mps 692 mmHg 71%
    19:00 +8°C° 0.1 mm 1 mps 691 mmHg 84%
    20:00 +8°C° 0 mm 1 mps 692 mmHg 86%
    21:00 +7°C° 0 mm 1 mps 692 mmHg 88%
    22:00 +7°C° 0 mm 1 mps 692 mmHg 90%
    23:00 +7°C° 0 mm 1 mps 692 mmHg 90%

    3 April, Monday

    Time Temperature Precipitation Wind Pressure Humidity
    00:00 +7°C° 0 mm 1 mps 692 mmHg 90%
    01:00 +6°C° 0 mm 1 mps 692 mmHg 90%
    02:00 +6°C° 0 mm 1 mps 692 mmHg 89%
    03:00 +6°C° 0 mm 1 mps 692 mmHg 89%
    04:00 +6°C° 0 mm 1 mps 692 mmHg 89%
    05:00 +7°C° 0 mm 1 mps 692 mmHg 86%
    06:00 +7°C° 0 mm 1 mps 693 mmHg 83%
    07:00 +8°C° 0 mm 1 mps 693 mmHg 80%
    08:00 +11°C° 0 mm 1 mps 694 mmHg 71%
    09:00 +13°C° 0 mm 2 mps 694 mmHg 62%
    10:00 +15°C° 0 mm 2 mps 695 mmHg 53%
    11:00 +16°C° 0.2 mm 2 mps 695 mmHg 52%
    12:00 +17°C° 0.2 mm 2 mps 695 mmHg 50%
    13:00 +17°C° 0.2 mm 2 mps 695 mmHg 49%
    14:00 +17°C° 0.4 mm 2 mps 694 mmHg 52%
    15:00 +16°C° 0.4 mm 2 mps 694 mmHg 54%
    16:00 +16°C° 0.4 mm 2 mps 694 mmHg 57%
    17:00 +14°C° 0.5 mm 2 mps 694 mmHg 66%
    18:00 +12°C° 0.5 mm 1 mps 693 mmHg 75%
    19:00 +10°C° 0.5 mm 1 mps 693 mmHg 84%
    20:00 +9°C° 0.3 mm 1 mps 693 mmHg 87%
    21:00 +9°C° 0.3 mm 1 mps 694 mmHg 89%
    22:00 +8°C° 0.3 mm 1 mps 694 mmHg 92%
    23:00 +7°C° 0.1 mm 1 mps 694 mmHg 93%

    4 April, Tuesday

    Time Temperature Precipitation Wind Pressure Humidity
    00:00 +7°C° 0.1 mm 1 mps 694 mmHg 93%
    01:00 +7°C° 0.1 mm 1 mps 694 mmHg 94%
    02:00 +6°C° 0 mm 1 mps 694 mmHg 94%
    03:00 +6°C° 0 mm 1 mps 693 mmHg 94%
    04:00 +6°C° 0 mm 1 mps 693 mmHg 94%
    05:00 +6°C° 0 mm 1 mps 693 mmHg 92%
    06:00 +7°C° 0 mm 1 mps 694 mmHg 90%
    07:00 +7°C° 0 mm 1 mps 694 mmHg 87%
    08:00 +9°C° 0 mm 1 mps 694 mmHg 78%
    09:00 +10°C° 0 mm 2 mps 694 mmHg 69%
    10:00 +12°C° 0 mm 2 mps 695 mmHg 60%
    11:00 +13°C° 0 mm 2 mps 695 mmHg 54%
    12:00 +14°C° 0 mm 2 mps 694 mmHg 49%
    13:00 +14°C° 0 mm 3 mps 694 mmHg 44%
    14:00 +14°C° 0 mm 3 mps 694 mmHg 44%
    15:00 +14°C° 0 mm 3 mps 694 mmHg 44%
    16:00 +13°C° 0 mm 3 mps 694 mmHg 44%
    17:00 +12°C° 0 mm 2 mps 693 mmHg 54%
    18:00 +9°C° 0 mm 2 mps 693 mmHg 65%
    19:00 +8°C° 0 mm 1 mps 693 mmHg 75%
    20:00 +7°C° 0 mm 1 mps 693 mmHg 78%
    21:00 +6°C° 0 mm 1 mps 693 mmHg 82%
    22:00 +5°C° 0 mm 1 mps 693 mmHg 86%
    23:00 +5°C° 0 mm 1 mps 693 mmHg 87%
    Show more